Weather History for KRUG - November, 2013

Change the Weather History Date:

Thursday, November 21, 2013

  Actual Average Record
Temperature  
Mean Temperature 0 °F -  
Max Temperature 8 °F 31 °F 54 °F (1987)
Min Temperature -9 °F 14 °F -14 °F (1978)
Degree Days  
Heating Degree Days 66    
Moisture  
Dew Point -5 °F    
Average Humidity 79    
Maximum Humidity 92    
Minimum Humidity 66    
Precipitation  
Precipitation 0.00 in - - ()
Sea Level Pressure  
Sea Level Pressure 30.48 in    
Wind  
Wind Speed 14 mph (West)    
Max Wind Speed 21 mph    
Max Gust Speed 25 mph    
Visibility 10 miles    
Events      
Averages and records for this station are not official NWS values.
T = Trace of Precipitation, MM = Missing Value Source: NWS Daily Summary

Daily Weather History Graph

Daily Weather History Graph

Search for Another Location

Airport or City:

Trip Planner

Search our weather history database for the weather conditions in past years. The results will help you decide how hot, cold, wet, or windy it might be!

Date:

Astronomy

Nov. 21, 2013 Rise Set
Actual Time 7:57 AM CST 4:54 PM CST
Civil Twilight 7:22 AM CST 5:29 PM CST
Nautical Twilight 6:43 AM CST 6:08 PM CST
Astronomical Twilight 6:06 AM CST 6:45 PM CST
Moon 8:35 PM CST (11/21) 11:02 AM CST (11/21)
Length of Visible Light 10h 07m
Length of Day
8h 57m
Waning Gibbous, 85% of the Moon is Illuminated
Nov 21
Waning Gibbous
Nov 25
Last Quarter
Dec 2
New
Dec 9
First Quarter
Dec 17
Full

Hourly Weather History & Observations

Time (CST) Temp. Windchill Dew Point Humidity Pressure Visibility Wind Dir Wind Speed Gust Speed Precip Events Conditions
12:15 AM 6.8 °F -12.4 °F 5.0 °F 92% 30.32 in 10.0 mi NW 18.4 mph - N/A   Clear
12:35 AM 6.8 °F -12.9 °F 3.2 °F 85% 30.34 in 10.0 mi NW 19.6 mph - N/A   Clear
12:55 AM 6.8 °F -11.3 °F 1.4 °F 79% 30.34 in 10.0 mi NW 16.1 mph - N/A   Clear
1:15 AM 6.8 °F -12.4 °F 1.4 °F 79% 30.34 in 10.0 mi NW 18.4 mph - N/A   Scattered Clouds
1:35 AM 6.8 °F -12.9 °F 1.4 °F 79% 30.35 in 10.0 mi NW 19.6 mph - N/A   Partly Cloudy
1:55 AM 6.8 °F -13.4 °F 1.4 °F 79% 30.36 in 10.0 mi NW 20.7 mph 25.3 mph N/A   Clear
2:15 AM 5.0 °F -14.2 °F -0.4 °F 78% 30.37 in 10.0 mi NW 17.3 mph - N/A   Clear
2:35 AM 5.0 °F -14.2 °F -0.4 °F 78% 30.39 in 10.0 mi NW 17.3 mph - N/A   Clear
2:55 AM 3.2 °F -15.9 °F -0.4 °F 85% 30.40 in 10.0 mi NW 16.1 mph - N/A   Clear
3:15 AM 3.2 °F -16.5 °F -0.4 °F 85% 30.41 in 10.0 mi NW 17.3 mph - N/A   Clear
3:35 AM 1.4 °F -19.4 °F -2.2 °F 85% 30.42 in 10.0 mi NW 18.4 mph - N/A   Clear
3:55 AM -0.4 °F -21.2 °F -2.2 °F 92% 30.43 in 10.0 mi NW 17.3 mph - N/A   Clear
4:15 AM -0.4 °F -19.2 °F -4.0 °F 85% 30.44 in 10.0 mi NW 13.8 mph - N/A   Clear
4:35 AM -0.4 °F -19.9 °F -4.0 °F 85% 30.43 in 10.0 mi NW 15.0 mph - N/A   Clear
4:55 AM -2.2 °F -21.5 °F -5.8 °F 85% 30.44 in 10.0 mi NW 13.8 mph - N/A   Clear
5:15 AM -2.2 °F -19.9 °F -7.6 °F 78% 30.45 in 10.0 mi NW 11.5 mph - N/A   Clear
5:35 AM -4.0 °F -23.0 °F -7.6 °F 85% 30.46 in 10.0 mi NW 12.7 mph - N/A   Clear
5:55 AM -4.0 °F -23.7 °F -9.4 °F 78% 30.46 in 10.0 mi NW 13.8 mph - N/A   Clear
6:15 AM -4.0 °F -22.1 °F -9.4 °F 78% 30.47 in 10.0 mi WNW 11.5 mph - N/A   Clear
6:35 AM -7.6 °F -25.7 °F -11.2 °F 84% 30.48 in 10.0 mi WNW 10.4 mph - N/A   Clear
6:55 AM -9.4 °F -28.9 °F -13.0 °F 84% 30.50 in 10.0 mi WNW 11.5 mph - N/A   Clear
7:15 AM -7.6 °F -26.6 °F -11.2 °F 84% 30.51 in 8.0 mi WNW 11.5 mph - N/A   Clear
7:35 AM -9.4 °F -27.9 °F -13.0 °F 84% 30.53 in 8.0 mi WNW 10.4 mph - N/A   Clear
7:55 AM -9.4 °F -27.9 °F -13.0 °F 84% 30.54 in 10.0 mi WNW 10.4 mph - N/A   Clear
8:15 AM -9.4 °F -26.8 °F -13.0 °F 84% 30.55 in 10.0 mi WNW 9.2 mph - N/A   Clear
8:35 AM -7.6 °F -25.7 °F -13.0 °F 77% 30.55 in 9.0 mi WNW 10.4 mph - N/A   Clear
8:55 AM -7.6 °F -20.6 °F -13.0 °F 77% 30.57 in 9.0 mi WNW 5.8 mph - N/A   Clear
9:15 AM -7.6 °F -24.6 °F - N/A% 30.57 in 10.0 mi WNW 9.2 mph - N/A   Clear
9:35 AM -7.6 °F -25.7 °F -11.2 °F 84% 30.57 in 10.0 mi WNW 10.4 mph - N/A   Clear
9:55 AM -5.8 °F -18.4 °F -11.2 °F 77% 30.57 in 10.0 mi WNW 5.8 mph - N/A   Clear
10:15 AM -4.0 °F -17.8 °F -9.4 °F 78% 30.56 in 10.0 mi WNW 6.9 mph - N/A   Clear
10:35 AM -4.0 °F -17.8 °F -9.4 °F 78% 30.57 in 10.0 mi West 6.9 mph - N/A   Clear
10:55 AM -2.2 °F -19.9 °F -9.4 °F 71% 30.58 in 10.0 mi West 11.5 mph - N/A   Clear
11:15 AM -2.2 °F -16.8 °F -7.6 °F 78% 30.59 in 10.0 mi WNW 8.1 mph - N/A   Clear
11:35 AM -2.2 °F -18.9 °F -7.6 °F 78% 30.59 in 10.0 mi West 10.4 mph - N/A   Clear
11:55 AM -2.2 °F -20.7 °F -7.6 °F 78% 30.58 in 10.0 mi West 12.7 mph - N/A   Clear
12:15 PM -0.4 °F -17.6 °F -7.6 °F 72% 30.58 in 10.0 mi West 11.5 mph - N/A   Clear
12:35 PM -0.4 °F -15.7 °F -7.6 °F 72% 30.58 in 10.0 mi West 9.2 mph - N/A   Clear
12:55 PM -0.4 °F -15.7 °F -5.8 °F 78% 30.57 in 10.0 mi West 9.2 mph - N/A   Clear
1:15 PM 1.4 °F -14.5 °F -4.0 °F 78% 30.57 in 10.0 mi West 10.4 mph - N/A   Clear
1:35 PM 1.4 °F -14.5 °F -4.0 °F 78% 30.57 in 10.0 mi West 10.4 mph - N/A   Clear
1:55 PM 1.4 °F -13.5 °F -4.0 °F 78% 30.56 in 10.0 mi West 9.2 mph - N/A   Clear
2:15 PM 1.4 °F -12.5 °F -4.0 °F 78% 30.56 in 10.0 mi West 8.1 mph - N/A   Clear
2:35 PM 3.2 °F -10.3 °F -4.0 °F 72% 30.55 in 10.0 mi WSW 8.1 mph - N/A   Clear
2:55 PM 3.2 °F -10.3 °F -4.0 °F 72% 30.54 in 10.0 mi WSW 8.1 mph - N/A   Clear
3:15 PM 5.0 °F -6.9 °F -4.0 °F 66% 30.54 in 10.0 mi WSW 6.9 mph - N/A   Clear
3:35 PM 5.0 °F -6.9 °F -4.0 °F 66% 30.54 in 10.0 mi SW 6.9 mph - N/A   Clear
3:55 PM 5.0 °F -6.9 °F -4.0 °F 66% 30.54 in 10.0 mi SW 6.9 mph - N/A   Clear
4:15 PM 3.2 °F -10.3 °F -4.0 °F 72% 30.53 in 10.0 mi SSW 8.1 mph - N/A   Clear
4:35 PM 1.4 °F -8.3 °F -4.0 °F 78% 30.54 in 10.0 mi SW 4.6 mph - N/A   Clear
4:55 PM -0.4 °F -14.7 °F -5.8 °F 78% 30.52 in 10.0 mi SSW 8.1 mph - N/A   Clear
5:15 PM -0.4 °F -13.4 °F -5.8 °F 78% 30.52 in 10.0 mi SSW 6.9 mph - N/A   Clear
5:35 PM -2.2 °F -14.2 °F -7.6 °F 78% 30.52 in 10.0 mi South 5.8 mph - N/A   Clear
5:55 PM -2.2 °F -16.8 °F -7.6 °F 78% 30.51 in 10.0 mi South 8.1 mph - N/A   Clear
6:15 PM -2.2 °F -16.8 °F -7.6 °F 78% 30.50 in 10.0 mi South 8.1 mph - N/A   Clear
6:35 PM -0.4 °F -16.7 °F -7.6 °F 72% 30.49 in 10.0 mi South 10.4 mph - N/A   Clear
6:55 PM -0.4 °F -15.7 °F -5.8 °F 78% 30.49 in 10.0 mi South 9.2 mph 16.1 mph N/A   Clear
7:15 PM 1.4 °F -16.9 °F -4.0 °F 78% 30.48 in 10.0 mi SSW 13.8 mph - N/A   Clear
7:35 PM 1.4 °F -12.5 °F -2.2 °F 85% 30.48 in 10.0 mi SSW 8.1 mph - N/A   Clear
7:55 PM 1.4 °F -15.3 °F -2.2 °F 85% 30.46 in 10.0 mi SSW 11.5 mph - N/A   Clear
8:15 PM 1.4 °F -15.3 °F -2.2 °F 85% 30.46 in 10.0 mi SSW 11.5 mph - N/A   Clear
8:35 PM 1.4 °F -15.3 °F -2.2 °F 85% 30.45 in 10.0 mi SSW 11.5 mph - N/A   Clear
8:55 PM 3.2 °F -13.9 °F -2.2 °F 78% 30.43 in 10.0 mi SSW 12.7 mph - N/A   Clear
9:15 PM 5.0 °F -13.0 °F -2.2 °F 72% 30.42 in 10.0 mi SSW 15.0 mph 20.7 mph N/A   Clear
9:35 PM 5.0 °F -14.2 °F -0.4 °F 78% 30.41 in 10.0 mi SSW 17.3 mph 24.2 mph N/A   Clear
9:55 PM 6.8 °F -11.3 °F -0.4 °F 72% 30.40 in 10.0 mi SSW 16.1 mph 20.7 mph N/A   Clear
10:15 PM 6.8 °F -10.0 °F -0.4 °F 72% 30.40 in 10.0 mi SSW 13.8 mph - N/A   Clear
10:35 PM 6.8 °F -9.3 °F 1.4 °F 79% 30.39 in 10.0 mi SW 12.7 mph 18.4 mph N/A   Clear
10:55 PM 8.6 °F -7.0 °F 1.4 °F 73% 30.38 in 10.0 mi SSW 12.7 mph - N/A   Clear
11:15 PM 8.6 °F -8.3 °F 1.4 °F 73% 30.37 in 10.0 mi SSW 15.0 mph - N/A   Clear
11:35 PM 8.6 °F -8.3 °F 3.2 °F 79% 30.37 in 10.0 mi SW 15.0 mph 20.7 mph N/A   Clear
11:55 PM 8.6 °F -9.5 °F 3.2 °F 79% 30.35 in 10.0 mi SSW 17.3 mph 24.2 mph N/A   Clear